Location: Passo di Treia
(43.2833°N, 13.3333°E)
Time: 18:30:41
(UTC+00:00)

Sich 1 Rocket - Pass Details

Date: 09 December 2019
Orbit: 617 x 652 km, 82.5° (Epoch: 26 January)

Event Time Altitude Azimuth Distance (km) Brightness Sun altitude
Rises 17:56:30 0° 347° (NNW) 2,911 7.1 -25.6°
Reaches altitude 10° 17:58:46 10° 344° (NNW) 1,996 6.2 -26.0°
Maximum altitude 18:03:06 59° 265° (W) 717 4.0 -26.8°
Drops below altitude 10° 18:07:23 10° 187° (S) 1,973 6.3 -27.6°
Sets 18:09:37 0° 183° (S) 2,874 7.1 -28.0°
